N1VL Weather Reports


Display with metric or nautical units.
time (UTC)temp
F
wind
direction
speed
MPH
gust
MPH
rain 1hr
in
rain 24hr
in
rain mn
in
humidity
%
barometer
mb
20260506131803 43 275 1.0 6.0 0.00 0.09 0.09 52 1018.5
20260506130903 43 260 3.0 7.0 0.00 0.09 0.09 52 1018.4
20260506130003 42 262 2.0 7.0 0.00 0.09 0.09 52 1018.3
20260506125403 42 221 0.0 4.0 0.00 0.09 0.09 52 1018.1
20260506124503 42 0 0.0 6.0 0.00 0.09 0.09 52 1018.0
20260506123603 42 194 1.0 6.0 0.00 0.09 0.09 52 1018.0
20260506122703 42 211 2.0 7.0 0.00 0.09 0.09 52 1017.8
20260506121803 43 269 2.0 6.0 0.00 0.09 0.09 52 1017.9
20260506120903 43 293 2.0 9.0 0.00 0.09 0.09 52 1017.8
20260506120003 43 288 5.0 9.0 0.00 0.09 0.09 52 1017.6
20260506115403 43 289 7.0 13.0 0.00 0.09 0.09 52 1017.6
20260506114524 43 298 8.0 13.0 0.00 0.09 0.09 52 1017.5
20260506113603 44 291 10.0 24.0 0.00 0.09 0.09 52 1017.6
20260506112724 44 278 12.0 24.0 0.00 0.09 0.09 51 1017.4
20260506111824 44 285 13.0 20.0 0.00 0.09 0.09 50 1017.3
20260506110924 44 283 15.0 27.0 0.00 0.09 0.09 48 1017.2
20260506110003 43 283 15.0 27.0 0.00 0.09 0.09 47 1016.8
20260506105403 44 277 20.0 29.0 0.00 0.09 0.09 46 1016.7
20260506104524 43 278 16.0 28.0 0.00 0.09 0.09 42 1016.5
20260506103624 44 281 12.0 23.0 0.00 0.09 0.09 40 1016.5
20260506102703 44 271 15.0 24.0 0.01 0.09 0.09 39 1016.4
20260506101803 44 275 9.0 22.0 0.06 0.09 0.09 38 1016.3
20260506100903 44 286 8.0 14.0 0.08 0.09 0.09 39 1016.2
20260506100003 44 276 9.0 18.0 0.08 0.09 0.09 39 1016.1
20260506095403 45 256 9.0 18.0 0.09 0.09 0.09 40 1015.9
20260506094503 45 277 12.0 20.0 0.09 0.09 0.09 41 1015.6
20260506093603 46 281 5.0 10.0 0.09 0.09 0.09 41 1015.6
20260506092724 47 311 10.0 26.0 0.08 0.08 0.08 42 1015.5
20260506091824 47 305 14.0 26.0 0.03 0.03 0.04 45 1015.6
20260506090903 47 265 16.0 27.0 0.01 0.01 0.01 48 1015.5
20260506090003 49 231 13.0 25.0 0.01 0.01 0.01 51 1015.0
20260506085403 50 220 12.0 20.0 0.00 0.00 0.00 52 1014.5
20260506084503 50 200 8.0 14.0 0.00 0.00 0.00 53 1013.8
20260506083603 50 191 5.0 9.0 0.00 0.00 0.00 55 1013.7
20260506082703 50 195 5.0 10.0 0.00 0.00 0.00 56 1013.6
20260506081803 51 191 6.0 11.0 0.00 0.00 0.00 57 1013.7
20260506080924 52 169 6.0 11.0 0.00 0.00 0.00 57 1013.7
20260506072703 52 297 2.0 5.0 0.00 0.00 0.00 55 1014.0
20260506071824 52 316 2.0 6.0 0.00 0.00 0.00 55 1014.0
20260506070924 51 293 3.0 9.0 0.00 0.00 0.00 54 1013.9
20260506061824 49 115 3.0 5.0 0.00 0.00 0.00 52 1013.4
20260506060903 48 113 1.0 4.0 0.00 0.00 0.00 52 1013.3
20260506050903 48 112 2.0 5.0 0.00 0.00 0.00 55 1012.6
20260506044503 49 92 3.0 5.0 0.00 0.00 0.00 56 1012.4
20260506043624 50 114 4.0 5.0 0.00 0.00 0.00 56 1012.4
20260506042703 50 119 3.0 5.0 0.00 0.00 0.00 56 1012.5
20260506041803 50 120 2.0 6.0 0.00 0.00 0.00 57 1012.4
20260506040903 50 119 3.0 6.0 0.00 0.00 0.00 57 1012.4
20260506040003 50 99 2.0 5.0 0.00 0.00 0.00 58 1012.5
20260506035424 51 51 2.0 5.0 0.00 0.00 0.00 58 1012.4
20260506034503 51 52 4.0 5.0 0.00 0.00 0.00 58 1012.3
20260506033603 52 51 4.0 5.0 0.00 0.00 0.00 58 1012.2
20260506032703 52 51 3.0 5.0 0.00 0.00 0.00 58 1012.2
20260506031803 53 51 3.0 5.0 0.00 0.00 0.00 58 1012.1
20260506030903 53 51 4.0 5.0 0.00 0.00 0.00 57 1012.0
20260506030003 53 87 3.0 5.0 0.00 0.00 0.00 58 1011.9
20260506025424 53 97 2.0 4.0 0.00 0.00 0.00 58 1011.9
20260506024503 54 97 1.0 4.0 0.00 0.00 0.00 57 1011.9
20260506023603 54 97 1.0 7.0 0.00 0.00 0.00 56 1011.8
20260506022703 55 98 3.0 7.0 0.00 0.00 0.00 56 1011.7
20260506021803 56 99 4.0 7.0 0.00 0.00 0.00 55 1011.6
20260506020903 56 101 4.0 7.0 0.00 0.00 0.00 54 1011.5
20260506020003 57 113 5.0 9.0 0.00 0.00 0.00 53 1011.4
20260506015403 57 117 4.0 9.0 0.00 0.00 0.00 52 1011.4
20260506014503 58 117 4.0 9.0 0.00 0.00 0.00 51 1011.5
20260506013603 58 98 5.0 9.0 0.00 0.00 0.00 50 1011.3
20260506012703 58 106 6.0 9.0 0.00 0.00 0.00 50 1011.4
20260506011803 59 123 7.0 10.0 0.00 0.00 0.00 49 1011.4
20260506010903 59 118 5.0 10.0 0.00 0.00 0.00 47 1011.4
20260506010003 60 117 5.0 10.0 0.00 0.00 0.00 47 1011.4
20260506005424 60 104 5.0 9.0 0.00 0.00 0.00 47 1011.3
20260506004524 60 92 5.0 9.0 0.00 0.00 0.00 46 1011.3
20260506003603 60 102 3.0 8.0 0.00 0.00 0.00 46 1011.3
20260506002703 61 98 6.0 8.0 0.00 0.00 0.00 45 1011.3
20260506001803 62 117 4.0 8.0 0.00 0.00 0.00 45 1011.3
20260506000903 62 106 5.0 8.0 0.00 0.00 0.00 45 1011.4
20260506000003 62 114 3.0 8.0 0.00 0.00 0.00 46 1011.3
20260505235403 61 125 4.0 8.0 0.00 0.00 0.00 46 1011.4
20260505234503 60 128 4.0 8.0 0.00 0.00 0.00 47 1011.4
20260505233624 59 144 5.0 9.0 0.00 0.00 0.00 49 1011.5
20260505232703 58 142 3.0 9.0 0.00 0.00 0.00 50 1011.6
20260505231803 57 147 2.0 6.0 0.00 0.00 0.00 52 1011.7
20260505230903 57 146 4.0 7.0 0.00 0.00 0.00 54 1011.7
20260505230003 56 118 2.0 7.0 0.00 0.00 0.00 55 1011.8
20260505225403 56 118 3.0 7.0 0.00 0.00 0.00 54 1011.7
20260505224524 56 192 1.0 5.0 0.00 0.00 0.00 53 1011.8
20260505223603 56 200 1.0 6.0 0.00 0.00 0.00 52 1012.1
20260505222703 56 190 1.0 5.0 0.00 0.00 0.00 50 1012.2
20260505221824 56 359 1.0 5.0 0.00 0.00 0.00 51 1012.3
20260505220903 57 72 2.0 5.0 0.00 0.00 0.00 49 1012.4
20260505220003 57 82 2.0 5.0 0.00 0.00 0.00 50 1012.3
20260505215403 56 96 3.0 8.0 0.00 0.00 0.00 50 1012.3
20260505214503 56 111 3.0 8.0 0.00 0.00 0.00 50 1012.4
20260505213603 56 118 5.0 8.0 0.00 0.00 0.00 52 1012.4
20260505212703 56 115 4.0 11.0 0.00 0.00 0.00 52 1012.4
20260505211803 57 111 4.0 9.0 0.00 0.00 0.00 49 1012.5
20260505210903 57 106 5.0 9.0 0.00 0.00 0.00 48 1012.5
20260505210003 57 113 5.0 10.0 0.00 0.00 0.00 47 1012.5
20260505205403 57 115 6.0 10.0 0.00 0.00 0.00 47 1012.6
20260505204503 58 84 4.0 9.0 0.00 0.00 0.00 47 1012.6
20260505203603 58 91 5.0 9.0 0.00 0.00 0.00 48 1012.6
20260505202703 58 106 7.0 12.0 0.00 0.00 0.00 47 1012.6
20260505201824 57 87 6.0 10.0 0.00 0.00 0.00 49 1012.7
20260505200903 57 93 7.0 11.0 0.00 0.00 0.00 50 1012.8
20260505200003 56 100 7.0 11.0 0.00 0.00 0.00 50 1012.8
20260505195403 56 101 6.0 10.0 0.00 0.00 0.00 52 1012.8
20260505194521 55 89 6.0 10.0 0.00 0.00 0.00 52 1012.8
20260505193621 55 97 6.0 11.0 0.00 0.00 0.00 52 1012.9
20260505192700 55 86 6.0 14.0 0.00 0.00 0.00 53 1012.9
20260505191800 55 88 8.0 14.0 0.00 0.00 0.00 52 1013.0
20260505190921 55 104 6.0 12.0 0.00 0.00 0.00 52 1013.0
20260505190021 55 97 7.0 12.0 0.00 0.00 0.00 52 1013.0
20260505185400 56 78 7.0 11.0 0.00 0.00 0.00 53 1013.1
20260505184521 55 87 8.0 14.0 0.00 0.00 0.00 53 1013.1
20260505183621 55 89 8.0 14.0 0.00 0.00 0.00 54 1013.1
20260505182700 54 80 7.0 13.0 0.00 0.00 0.00 54 1013.1
20260505181800 54 92 7.0 13.0 0.00 0.00 0.00 54 1013.1
20260505180900 54 92 7.0 14.0 0.00 0.00 0.00 55 1013.1
20260505180000 53 87 8.0 15.0 0.00 0.00 0.00 55 1013.2
20260505175400 53 87 8.0 15.0 0.00 0.00 0.00 55 1013.3
20260505174500 53 79 8.0 15.0 0.00 0.00 0.00 55 1013.3
20260505173621 53 84 10.0 15.0 0.00 0.00 0.00 55 1013.2
20260505172700 53 80 8.0 14.0 0.00 0.00 0.00 56 1013.3
20260505171800 52 81 9.0 15.0 0.00 0.00 0.00 56 1013.3
20260505170900 52 78 8.0 15.0 0.00 0.00 0.00 56 1013.3
20260505170000 52 67 10.0 19.0 0.00 0.00 0.00 56 1013.4
20260505165421 51 69 10.0 19.0 0.00 0.00 0.00 56 1013.3
20260505164500 51 66 11.0 19.0 0.00 0.00 0.00 56 1013.3
20260505163600 51 70 10.0 18.0 0.00 0.00 0.00 56 1013.3
20260505162700 51 69 10.0 19.0 0.00 0.00 0.00 56 1013.3
20260505161800 51 71 11.0 21.0 0.00 0.00 0.00 56 1013.2
20260505160900 51 74 12.0 22.0 0.00 0.00 0.00 56 1013.2
20260505152700 51 81 10.0 16.0 0.00 0.00 0.00 56 1012.9
20260505151800 51 78 10.0 20.0 0.00 0.00 0.00 56 1012.9
20260505150900 51 79 11.0 20.0 0.00 0.00 0.00 57 1012.9